Location: �ilina
(49.3074°N, 18.7654°E)
Time: 12:31:10
(UTC+02:00)

ISS - Visible Passes

Search period start: 20 July 2024 00:00
Search period end: 30 July 2024 00:00
Orbit: 409 x 423 km, 51.6° (Epoch: 20 July)

Date Brightness Start Highest point End Pass type
(mag) Time Alt. Az. Time Alt. Az. Time Alt. Az.
20 Jul -3.3 21:27:40 10° WNW 21:30:57 62° N 21:34:15 10° E visible
20 Jul -3.5 23:04:28 10° WNW 23:07:40 46° SSW 23:08:05 43° S visible
21 Jul -3.8 22:15:58 10° WNW 22:19:16 67° SSW 22:21:10 23° SE visible
21 Jul -1.2 23:53:32 10° W 23:54:02 12° WSW 23:54:02 12° WSW visible
22 Jul -3.8 21:27:27 10° WNW 21:30:47 90° N 21:34:06 10° ESE visible
22 Jul -2.2 23:04:33 10° W 23:07:07 22° SW 23:07:07 22° SW visible
23 Jul -2.8 22:15:48 10° W 22:18:50 33° SSW 22:20:13 23° SSE visible
24 Jul -3.3 21:27:09 10° WNW 21:30:21 49° SSW 21:33:20 12° SE visible
24 Jul -1.1 23:06:00 10° SW 23:06:13 10° SW 23:06:13 10° SW visible
25 Jul -1.7 22:15:59 10° W 22:18:06 16° SW 22:19:21 14° SSW visible
26 Jul -2.1 21:26:55 10° W 21:29:40 24° SW 21:32:23 10° SSE visible
28 Jul -1.1 21:27:39 10° WSW 21:28:39 11° SW 21:29:40 10° SSW visible
